Miscellaneous Local Product
Issued by NWS North Platte, NE

Home | Current Version | Previous Version | Graphics & Text | Print | Product List | Glossary On
Versions: 1 2 3 4 5 6 7 8 9 10 11 12 13 14 15 16 17 18 19 20 21 22 23 24 25 26 27 28 29 30 31 32 33 34 35 36 37 38 39 40 41 42 43 44 45 46 47 48 49 50
000
AXUS43 KLBF 300510
MISLBF


WESTERN AND NORTH CENTRAL NEBRASKA HOURLY WEATHER ROUNDUP
NATIONAL WEATHER SERVICE NORTH PLATTE NE
1200 AM CDT SAT MAY 30 2015

***STATIONS NOT REPORTING VARIABLES SUCH AS SKY/WEATHER OR
PRESSURE ARE PROVIDED BY THE NEBRASKA DEPARTMENT OF
ROADS...RAWS...AND APRS NETWORKS...AND ARE NOT UNDER
NATIONAL WEATHER SERVICE QUALITY CONTROL***

...OBSERVATIONS IN AND NEAR THE EASTERN PANHANDLE OF NEBRASKA...

CITY           SKY/WX    TMP DP  RH WIND       PRES   REMARKS
PINE RIDGE     CLEAR     38  36  92 E6        30.29S WCI  33
CHADRON        CLOUDY    47  44  90 W6        30.30S
ALLIANCE       PTCLDY    45  43  93 N3        30.29S
SIDNEY         CLOUDY    47  44  90 N10       30.30F
WHITECLAY        N/A     38  37  94 E5          N/A  WCI  34
CRESCENT LAKE    N/A     45  43  93 N3          N/A
BIG SPRINGS      N/A     49  45  87 N6          N/A
$$

...OBSERVATIONS IN NORTH CENTRAL NEBRASKA...

CITY           SKY/WX    TMP DP  RH WIND       PRES   REMARKS
VALENTINE      CLEAR     43  41  93 N7        30.28R
THEDFORD       PTCLDY    46  44  93 NW6       30.28S
AINSWORTH      CLEAR     45  42  91 NW8       30.25S
O`NEILL        CLOUDY    48  45  89 NW10      30.23R
ORD            CLOUDY    50  44  80 N15       30.20S
BROKEN BOW     CLOUDY    50  42  74 N17G26    30.23S
BROWNLEE         N/A     48  45  91 N10         N/A
VALENTINE NWR    N/A     44  44  99 N8          N/A
SPRINGVIEW       N/A     43  40  89 W3          N/A
HALSEY           N/A     46  45  97 NW6G14      N/A
NEWPORT          N/A     45  42  89 W8          N/A
SARGENT          N/A     49  45  85 MISG        N/A
CHAMBERS         N/A     48  45  91 N6          N/A
EWING            N/A     48  45  91 N7          N/A
$$

...OBSERVATIONS IN SOUTHWEST NEBRASKA AND FAR NORTHEAST COLORADO...

CITY           SKY/WX    TMP DP  RH WIND       PRES   REMARKS
WRAY           CLOUDY    51  47  85 N12G20    30.29R
HOLYOKE        CLOUDY    52  45  76 N9G18     30.29F
IMPERIAL       CLOUDY    50  44  80 N16G23    30.27S
OGALLALA       CLOUDY    48  43  83 N12       30.30R
NORTH PLATTE   CLOUDY    49  44  83 N13       30.28R
MCCOOK         CLOUDY    51  45  79 N16       30.25R
LEXINGTON      CLOUDY    51  47  86 N12G17    30.24S
PAXTON           N/A     49  45  87 NW9         N/A
GOTHENBURG       N/A     49  42  76 NW12        N/A
CALLAWAY         N/A     48  45  91 N13         N/A
$$

...NORTH PLATTE AREA...

CITY           SKY/WX    TMP DP  RH WIND       PRES   REMARKS
AIRPORT        CLOUDY    49  44  83 N13       30.28R
DOWNTOWN         N/A     49  44  83 N7          N/A
$$

...SOME WEATHER OBSERVATIONS FROM AROUND THE REGION...

CITY           SKY/WX    TMP DP  RH WIND       PRES   REMARKS
DENVER         MOCLDY    49  44  83 E8        30.33F
LARAMIE        CLEAR     40  37  89 S6        30.34F
CHEYENNE       PTCLDY    44  42  93 CALM      30.33F
SCOTTSBLUFF    CLOUDY    47  46  97 CALM      30.30S
RAPID CITY     CLEAR     41  36  82 CALM      30.30R
PIERRE         PTCLDY    45  39  79 N9        30.26R
WINNER         FAIR      41  36  82 NW8       30.26R
SIOUX FALLS    MOCLDY    48  43  82 N17G23    30.14S
OMAHA          CLOUDY    55  51  86 N20G29    30.06R
GRAND ISLAND   CLOUDY    51  44  77 N25G31    30.19R
KANSAS CITY    CLOUDY    63  62  97 S6        29.99S
WICHITA        CLOUDY    67  54  63 N12G22    30.02S
HAYS           CLOUDY    55  46  71 N21G31    30.16R
LIBERAL        MOCLDY    61  52  72 N15G22    30.18R
GOODLAND       CLOUDY    51  48  89 N13       30.27R
$$



USA.gov is the U.S. government's official web portal to all federal, state and local government web resources and services.